Content
SEND FEEDBACK

Daily
Averages
Monthly
Summary
Mexico

CANCUN, QUINTANA ROO


Home > North America > Mexico > Quintana Roo
Elevation: 9 meters     Latitude: 21 09N     Longitude: 086 49W

WEATHER
 
SELECT A DAY
Number of Records: 163,931;   Date Range: 1/1/95 - 8/31/14
 
SHARE

PRINT THIS DATA

[ ← Previous Day ]
WEATHER ALMANAC - 19 FEBRUARY, 2013
[ Next Day → ]
[ °F ]   °C
Weather ElementAverageHighLow
Temperature23.6 °C27 °C (9:42 am)18 °C (4:44 am)
Dewpoint19.8 °C22 °C (4:45 pm)16 °C (1:44 am)
Humidity79.6 %94 % (11:46 pm)65 % (9:42 am)
Barometer1017.9 hPa1019.6 hPa (9:42 am)1016.9 hPa (2:46 am)
Wind Speed8.9 km/h22.2 km/h (11:47 am)
Weather ElementAverage
Visibility10.5 km
Wind DirectionESE (107.8 °)

Weather ElementTotal
Precipitation---
Cooling Degree Days4.2 (Base 18.3)
Growing Degree Days12.5 (Base 10)
Averaged from 23 records on 19 February, 2013
WEATHER CONDITIONS BREAKOUT
WIND DIRECTION BREAKOUT
WEATHER BY HOUR - 19 FEBRUARY, 2013
[ °F ]   °C
Local TimeTemperatureDewpointHumidityBarometerVisibilityWind DirectionWind SpeedGust SpeedPrecipitationEventsConditions
1:44 AM21 °C16 °C73 %1017.3 hPa11.3 kmCalmClear
2:46 AM20 °C16 °C78 %1016.9 hPa11.3 kmCalmClear
3:45 AM19 °C16 °C83 %1016.9 hPa11.3 kmNNW (330°)9.3 km/hPartly Cloudy
4:44 AM18 °C16 °C88 %1016.9 hPa11.3 kmCalmScattered Clouds
5:43 AM18 °C16 °C88 %1017.6 hPa11.3 kmCalmScattered Clouds
6:42 AM19 °C16 °C83 %1018.3 hPa11.3 kmNW (320°)9.3 km/hMostly Cloudy
7:46 AM21 °C18 °C83 %1018.6 hPa9.7 kmNNW (340°)5.6 km/hMostly Cloudy
8:51 AM25 °C20 °C74 %1019.3 hPa9.7 kmEast (80°)13 km/hMostly Cloudy
9:42 AM27 °C20 °C65 %1019.6 hPa9.7 kmEast (100°)14.8 km/hMostly Cloudy
10:48 AM26 °C20 °C69 %1019.6 hPa9.7 kmESE (110°)9.3 km/hMostly Cloudy
11:47 AM27 °C21 °C70 %1019.3 hPa9.7 kmESE (110°)22.2 km/hMostly Cloudy
12:47 PM27 °C21 °C70 %1018.3 hPa9.7 kmESE (110°)16.7 km/hMostly Cloudy
1:43 PM26 °C21 °C74 %1017.6 hPa9.7 kmESE (110°)11.1 km/hMostly Cloudy
2:47 PM27 °C21 °C70 %1017.3 hPa11.3 kmNE (40°)11.1 km/hMostly Cloudy
3:54 PM26 °C21 °C74 %1017.3 hPa11.3 kmENE (70°)14.8 km/hMostly Cloudy
4:45 PM26 °C22 °C78 %1016.9 hPa11.3 kmEast (90°)16.7 km/hMostly Cloudy
6:50 PM25 °C22 °C83 %1017.9 hPa11.3 kmENE (70°)7.4 km/hMostly Cloudy
7:44 PM25 °C22 °C83 %1018.3 hPa11.3 kmESE (110°)7.4 km/hMostly Cloudy
8:05 PM25 °C22 °C83 %1018.6 hPa8 kmSE (130°)7.4 km/hRainLight Rain
8:46 PM24 °C22 °C89 %1018.3 hPa9.7 kmEast (90°)7.4 km/hMostly Cloudy
9:46 PM24 °C22 °C89 %1018.6 hPa9.7 kmEast (90°)5.6 km/hScattered Clouds
10:46 PM24 °C22 °C89 %1017.9 hPa11.3 kmEast (80°)9.3 km/hScattered Clouds
11:46 PM23 °C22 °C94 %1016.9 hPa9.7 kmEast (100°)5.6 km/hScattered Clouds
Hourly data recorded from MMUN, located 0 kilometers away from Cancun, Quintana Roo







STORIES FROM OUR PARTNERS